Location: Beaver Brook Station
(42.3793°N, 71.2203°W)
Time: 04:05:36
(UTC+00:00)

Hubble Space Telescope - Pass Details

Date: 23 January 2021
Orbit: 535 x 539 km, 28.5° (Epoch: 03 March)

Event Time Altitude Azimuth Distance (km) Brightness Sun altitude
Rises 00:04:44 0° 239° (WSW) 2,674 5.3 -25.4°
Reaches altitude 10° 00:09:07 10° 196° (SSW) 1,783 3.6 -26.2°
Maximum altitude 00:09:39 10° 188° (S) 1,770 3.5 -26.3°
Enters shadow 00:09:41 10° 188° (S) 1,770 3.5 -26.3°
